Location: ?????????
(53.2086°N, 54.0693°E)
Time: 15:20:21
(UTC+00:00)

Cosmos 2344 - Pass Details

Date: 08 December 2019
Orbit: 1256 x 2986 km, 63.3° (Epoch: 19 January)

Event Time Altitude Azimuth Distance (km) Brightness Sun altitude
Rises 15:24:56 0° 308° (NW) 4,461 7.2 -28.3°
Reaches altitude 10° 15:27:33 10° 310° (NW) 3,602 6.5 -28.7°
Maximum altitude 15:36:29 74° 37° (NE) 1,843 4.1 -30.0°
Enters shadow 15:39:33 53° 105° (ESE) 2,253 4.4 -30.5°
